Location: *
(43.0167°S, 179.9000°E)
Time: 11:17:19
(UTC+00:00)

Nadezhda 1 Rocket - Pass Details

Date: 12 August 2024
Orbit: 941 x 1004 km, 83.0° (Epoch: 12 September)

Event Time Altitude Azimuth Distance (km) Brightness Sun altitude
Rises 15:41:54 0° 185° (S) 3,756 7.2 -36.0°
Reaches altitude 10° 15:44:31 10° 181° (S) 2,793 6.5 -35.5°
Enters shadow 15:49:39 51° 145° (SE) 1,233 4.6 -34.6°
Exits shadow 15:51:10 60° 88° (E) 1,132 4.4 -34.3°
Drops below altitude 10° 15:57:02 10° 21° (NNE) 2,719 6.4 -33.3°
Sets 15:59:33 0° 17° (NNE) 3,649 7.1 -32.8°
